Location: Most
(50.5330°N, 13.6500°E)
Time: 20:16:40
(UTC+02:00)

ISS - Pass Details

Date: 24 May 2021
Orbit: 417 x 422 km, 51.6° (Epoch: 16 June)

Event Time Altitude Azimuth Distance (km) Brightness Sun altitude
Rises 22:59:19 0° 285° (WNW) 2,368 0.8 -13.6°
Reaches altitude 10° 23:01:25 10° 283° (WNW) 1,503 -0.3 -13.7°
Maximum altitude 23:04:46 70° 200° (SSW) 451 -3.8 -14.0°
Enters shadow 23:06:35 25° 121° (ESE) 894 -2.6 -14.1°
